Location: Wien
(48.2082°N, 16.3738°E)
Time: 03:13:28
(UTC+02:00)

ISS - Visible Passes

Search period start: 20 October 2019 00:00
Search period end: 29 October 2019 23:00
Orbit: 411 x 421 km, 51.6° (Epoch: 19 October)

Date Brightness Start Highest point End Pass type
(mag) Time Alt. Az. Time Alt. Az. Time Alt. Az.
22 Oct -0.3 06:52:34 10° SSE 06:53:22 11° SE 06:54:12 10° ESE visible
24 Oct -1.4 06:49:44 10° SSW 06:52:30 24° SE 06:55:17 10° E visible
25 Oct -0.9 06:01:57 10° S 06:04:04 16° SE 06:06:11 10° E visible
26 Oct -2.9 06:48:29 10° SW 06:51:47 51° SSE 06:55:03 10° ENE visible
27 Oct -2.3 05:00:39 13° SSW 05:03:13 34° SE 05:06:18 10° E visible
28 Oct -1.7 04:14:29 22° SSE 04:14:42 22° SE 04:17:24 10° E visible
28 Oct -3.8 05:47:46 10° WSW 05:51:09 82° NNW 05:54:31 10° ENE visible
29 Oct -0.3 03:28:10 10° E 03:28:10 10° E 03:28:11 10° E visible
29 Oct -3.6 05:01:04 32° SW 05:02:29 72° SSE 05:05:51 10° ENE visible
